Wind_Speed
26 26 26 26 26 26 25 25 25 24 24 25 25 25 26 27 28 29 29 28 29 28 28 29 29 28 31 35 39 41 38 35 33 32 33 33 32 32 32 32 34 34
28 28 28 28 27 27 27 27 26 26 26 26 27 27 27 27 28 29 30 30 31 31 31 31 31 31 31 34 38 38 33 31 31 31 31 31 32 33 33 32 33 34
30 30 30 29 29 29 29 28 28 27 27 28 28 29 29 29 29 29 30 31 32 33 33 33 33 33 33 34 36 34 31 30 32 32 32 31 32 34 34 33 33 33
31 31 32 31 31 31 30 30 29 29 29 29 30 31 31 31 31 31 32 32 33 34 34 35 35 36 36 36 36 33 31 32 34 36 35 33 33 34 34 35 34 32
32 32 33 33 33 32 32 31 31 30 30 30 31 32 32 33 33 33 34 34 34 34 35 36 36 37 38 38 37 34 33 33 34 37 38 36 35 35 35 36 35 34
33 34 34 34 34 34 33 33 32 32 32 32 32 32 33 33 34 34 35 36 36 36 36 37 38 38 39 39 38 37 35 34 34 37 39 39 38 36 36 36 36 35
33 34 35 36 35 35 35 34 34 34 33 33 33 33 34 34 34 34 35 36 37 38 38 38 39 39 39 39 40 39 37 35 36 38 39 40 40 38 37 36 35 35
33 34 35 35 36 36 36 36 35 35 35 35 35 35 35 35 35 36 36 36 37 39 40 40 40 41 41 40 41 41 38 37 38 38 38 40 42 40 39 38 37 36
34 34 35 35 36 36 36 36 37 37 37 37 36 36 37 37 37 37 37 37 38 39 40 41 41 41 42 41 41 41 40 38 38 38 38 39 42 42 41 40 39 38
35 35 35 35 36 37 37 38 38 39 39 39 38 38 38 38 39 39 39 40 40 40 41 42 42 41 42 42 41 42 42 40 39 39 38 39 41 42 42 42 41 40
37 36 36 36 36 37 38 38 39 40 40 41 40 40 40 40 40 40 41 42 42 42 42 43 43 42 42 42 42 42 42 42 41 40 39 39 40 41 43 44 42 41
39 39 38 38 38 38 38 39 40 41 42 42 43 42 42 41 41 42 42 43 44 44 44 44 44 44 43 42 42 42 42 42 43 42 40 39 40 41 43 45 44 42
44 43 42 41 41 40 40 40 40 42 42 43 43 43 43 43 43 43 44 44 45 46 46 46 45 45 43 43 43 43 42 43 43 44 42 40 40 41 43 45 45 43
47 47 46 45 44 44 43 43 43 42 42 43 43 44 44 45 45 45 45 46 46 47 47 47 47 45 44 44 44 44 44 44 44 45 45 43 41 42 43 45 45 44
47 47 46 46 46 46 46 46 46 45 44 44 44 45 45 46 47 47 47 47 48 48 49 48 47 46 44 44 45 45 45 45 45 45 46 45 43 42 43 44 45 45
46 46 45 45 45 46 46 46 46 46 46 45 45 46 47 47 47 48 48 48 49 49 49 48 46 45 45 45 46 46 46 46 46 46 47 46 45 44 43 44 45 46
44 44 44 44 44 44 45 45 45 45 45 45 46 47 48 48 48 48 49 49 50 49 48 47 45 45 46 47 48 48 48 47 47 47 48 47 47 45 44 44 45 46
41 41 41 41 41 41 42 42 42 43 43 45 46 47 48 49 49 49 49 49 49 48 47 46 46 46 48 49 49 49 50 49 48 48 48 48 47 46 45 45 46 46
38 39 39 39 39 39 39 40 41 42 43 45 46 47 48 48 48 49 48 48 48 48 47 47 46 46 48 49 49 49 50 50 49 48 48 48 48 47 47 46 46 46
38 38 38 38 38 38 39 40 42 43 44 45 46 46 47 47 47 47 47 48 48 48 48 46 45 44 46 47 47 47 49 50 49 48 47 47 48 48 48 47 46 45
38 38 38 38 39 39 40 41 42 43 43 44 44 45 45 45 46 47 47 47 47 47 46 44 43 44 45 46 46 47 47 48 49 48 47 46 47 48 48 47 46 46
39 39 39 39 40 40 41 41 41 41 41 42 43 44 45 46 46 45 44 44 44 44 45 44 42 43 44 45 45 46 47 47 47 47 47 46 46 47 48 48 47 46
40 39 39 39 40 39 39 39 39 39 41 42 43 44 44 44 43 42 41 42 43 43 44 43 40 40 41 42 43 44 46 46 45 46 46 45 45 46 47 48 47 46
40 39 39 39 38 38 37 37 38 39 41 43 43 42 41 41 41 40 41 41 42 41 41 39 37 36 37 39 41 43 45 45 44 44 45 45 45 46 47 47 47 47
39 38 38 37 36 36 36 37 38 40 41 41 40 40 39 39 40 40 40 40 40 38 37 36 35 34 35 37 38 41 44 44 43 43 43 44 44 45 46 47 47 47
38 37 36 36 35 35 36 37 39 39 39 39 39 39 38 39 39 40 38 37 36 36 35 35 35 35 36 36 37 39 41 42 41 41 41 42 43 45 46 47 47 47
Wind_Direction
286 284 282 282 282 281 281 280 281 282 283 284 285 286 286 286 286 287 288 288 286 283 279 274 270 265 261 259 257 256 258 262 265 265 262 261 262 260 257 255 254 254
288 286 283 281 281 281 281 281 281 282 283 284 284 285 285 286 287 288 289 289 288 287 284 281 278 273 268 264 263 265 270 274 273 270 265 263 264 265 264 261 258 257
289 286 283 281 280 280 280 281 281 283 283 284 284 284 284 285 287 288 289 289 288 287 285 283 281 278 276 273 271 272 274 271 267 263 258 255 255 257 260 259 256 256
288 286 284 282 281 280 281 281 282 283 285 285 285 284 285 285 285 286 287 288 287 287 285 284 281 279 277 276 276 274 270 265 263 261 256 253 252 252 254 255 252 251
287 285 283 281 280 280 280 280 281 282 283 284 284 284 284 283 283 284 285 286 286 286 286 284 282 279 276 275 275 274 269 264 262 261 258 254 252 252 252 253 254 253
285 283 281 279 279 278 278 278 278 278 280 280 281 281 280 279 279 280 281 283 284 285 285 285 283 279 275 273 271 271 270 266 261 259 258 254 252 252 252 253 255 257
285 282 280 278 277 276 276 276 276 276 277 279 280 280 279 278 278 277 278 281 283 284 284 285 284 280 275 271 268 267 268 267 262 258 257 257 254 252 252 253 254 256
288 284 281 279 277 276 275 275 275 276 277 279 280 281 280 279 278 278 278 279 281 282 282 283 283 281 277 272 267 265 264 265 264 259 257 257 256 252 251 252 251 251
290 287 283 281 278 277 276 275 275 276 277 278 280 281 281 280 279 279 278 279 280 281 281 282 282 281 277 273 268 264 261 261 263 261 256 254 255 253 251 251 251 250
291 288 284 281 278 276 276 276 276 276 277 278 280 281 280 280 280 279 279 280 281 281 282 282 282 280 277 273 268 264 260 258 259 261 258 253 252 253 251 250 251 251
292 290 287 283 279 276 275 275 276 277 278 279 280 280 281 281 280 280 280 280 282 282 283 283 282 280 276 272 268 265 261 257 256 258 258 255 251 250 251 249 249 249
295 293 290 287 283 280 277 276 276 276 277 279 279 280 281 281 281 280 279 280 281 282 283 282 281 279 275 270 266 264 261 258 255 254 256 255 252 248 248 249 248 247
298 297 295 293 290 287 283 280 277 276 276 277 278 279 280 281 281 280 279 279 281 282 282 281 280 277 273 269 265 262 260 258 255 253 253 254 253 249 247 247 247 246
297 296 295 294 292 290 288 285 283 280 279 278 278 279 279 280 280 280 279 280 281 282 281 281 279 276 272 268 265 261 259 256 254 253 252 252 252 250 247 246 246 245
292 291 290 290 289 287 286 285 285 283 282 280 279 279 279 280 280 280 280 281 281 281 281 280 278 275 271 268 265 262 259 256 254 252 251 250 250 250 248 246 245 245
289 288 287 285 284 284 283 282 282 282 282 281 279 279 280 280 280 280 280 280 280 280 279 278 276 273 271 268 266 263 260 256 253 251 250 249 248 248 248 246 244 244
288 286 285 284 283 282 282 281 280 280 280 279 279 279 280 280 280 280 280 280 279 279 278 276 274 272 270 268 266 264 261 257 254 251 250 248 247 246 247 247 244 243
288 286 285 285 284 283 282 281 281 280 279 279 279 280 280 280 280 280 280 280 279 278 277 275 274 273 271 269 266 264 262 259 254 251 249 248 247 245 245 246 245 242
288 287 287 286 286 285 284 284 283 282 281 281 281 281 281 281 282 281 281 280 279 279 277 276 275 273 271 269 266 263 261 259 255 251 248 247 247 245 243 244 245 243
291 290 289 289 289 288 288 287 286 285 284 284 283 283 283 283 283 282 282 281 281 280 278 276 275 272 270 268 266 264 261 258 255 252 248 245 245 245 244 243 243 243
293 292 291 291 291 290 289 288 287 287 287 287 286 286 286 285 285 284 283 282 281 280 278 276 275 272 270 268 266 264 261 258 255 252 248 245 243 244 244 242 242 242
294 293 292 292 291 290 289 289 289 289 289 289 289 288 288 287 286 285 283 282 281 280 279 278 276 273 270 267 265 263 261 258 255 252 249 245 242 242 243 242 241 241
294 293 293 292 291 291 291 291 292 292 291 291 290 289 288 287 286 286 284 283 282 281 280 278 276 273 270 267 264 262 260 257 254 252 248 245 242 240 241 241 240 239
295 294 293 293 293 293 294 293 294 294 294 293 292 290 289 289 288 287 286 285 283 282 280 277 275 272 270 268 265 262 260 257 254 251 248 244 241 239 239 239 239 238
296 295 295 295 295 295 295 295 296 296 295 293 292 292 291 290 289 288 287 285 284 281 279 276 274 272 270 268 266 264 261 257 254 251 248 244 241 239 237 237 237 237
297 296 296 296 296 296 296 297 298 297 295 294 294 294 293 292 291 290 288 286 283 280 278 277 275 273 270 268 267 265 263 259 253 250 248 244 241 238 236 236 235 235
Height
5866 5866 5865 5864 5864 5864 5863 5863 5862 5861 5861 5860 5859 5858 5858 5856 5855 5854 5853 5852 5851 5852 5852 5852 5852 5854 5853 5853 5851 5851 5854 5856 5857 5856 5857 5859 5861 5861 5862 5862 5862 5863
5862 5861 5861 5861 5860 5860 5859 5859 5858 5857 5857 5856 5855 5854 5854 5853 5852 5851 5849 5849 5848 5847 5847 5846 5847 5847 5847 5847 5845 5847 5853 5855 5853 5852 5854 5857 5859 5859 5859 5860 5860 5860
5858 5857 5856 5856 5856 5855 5855 5854 5854 5853 5852 5852 5851 5850 5849 5849 5848 5847 5846 5845 5844 5843 5843 5842 5842 5842 5842 5841 5840 5844 5849 5849 5847 5846 5847 5850 5852 5852 5854 5854 5855 5856
5854 5853 5852 5851 5851 5850 5850 5850 5849 5849 5848 5848 5847 5846 5845 5845 5844 5843 5842 5841 5841 5840 5839 5838 5838 5838 5837 5836 5837 5840 5842 5842 5842 5841 5842 5845 5846 5847 5849 5849 5850 5851
5850 5849 5848 5847 5847 5846 5846 5846 5845 5845 5844 5844 5843 5842 5841 5841 5840 5839 5838 5837 5837 5836 5835 5835 5834 5834 5833 5833 5834 5835 5836 5837 5838 5838 5839 5841 5842 5843 5845 5845 5846 5847
5846 5845 5844 5843 5843 5842 5842 5842 5841 5841 5840 5840 5839 5838 5837 5836 5836 5835 5834 5833 5832 5832 5831 5830 5830 5830 5829 5829 5830 5830 5831 5832 5833 5833 5834 5836 5837 5839 5841 5842 5843 5844
5842 5841 5839 5839 5838 5838 5837 5837 5837 5836 5836 5835 5834 5833 5833 5832 5831 5831 5830 5829 5827 5827 5826 5826 5825 5825 5824 5825 5825 5825 5826 5827 5827 5828 5830 5832 5833 5835 5836 5837 5839 5840
5838 5836 5835 5834 5833 5833 5832 5832 5831 5831 5830 5829 5829 5828 5827 5826 5826 5825 5825 5824 5823 5822 5821 5821 5820 5819 5819 5819 5819 5820 5821 5822 5822 5823 5825 5827 5828 5830 5831 5832 5833 5834
5833 5831 5830 5829 5828 5828 5827 5826 5825 5825 5824 5823 5823 5822 5821 5821 5820 5820 5819 5819 5818 5817 5816 5815 5815 5814 5814 5814 5814 5814 5815 5817 5817 5818 5820 5821 5822 5824 5826 5826 5827 5829
5828 5827 5826 5825 5824 5823 5822 5821 5820 5819 5818 5818 5817 5816 5816 5815 5814 5814 5813 5813 5812 5812 5811 5810 5810 5809 5808 5808 5808 5808 5809 5811 5812 5812 5814 5815 5816 5818 5820 5821 5822 5824
5824 5822 5821 5820 5819 5818 5817 5816 5815 5814 5813 5812 5811 5811 5810 5809 5809 5808 5807 5806 5806 5805 5805 5804 5804 5803 5803 5802 5802 5802 5803 5805 5806 5807 5808 5809 5811 5812 5813 5815 5817 5819
5818 5817 5815 5814 5813 5812 5811 5811 5809 5808 5807 5806 5805 5805 5804 5804 5803 5802 5801 5800 5800 5799 5799 5798 5798 5797 5797 5796 5796 5796 5797 5798 5799 5800 5802 5803 5804 5806 5807 5808 5811 5813
5811 5810 5808 5807 5806 5805 5804 5803 5803 5802 5801 5800 5799 5799 5798 5797 5796 5795 5795 5794 5793 5793 5792 5792 5791 5791 5790 5789 5789 5789 5790 5791 5792 5793 5795 5796 5798 5799 5800 5802 5804 5807
5804 5803 5801 5800 5799 5798 5797 5796 5795 5795 5794 5794 5793 5792 5791 5790 5789 5788 5788 5787 5787 5786 5785 5784 5784 5784 5784 5783 5782 5783 5784 5784 5785 5786 5788 5790 5791 5792 5793 5795 5798 5801
5800 5798 5796 5795 5793 5792 5791 5789 5788 5788 5787 5787 5786 5785 5784 5783 5782 5782 5781 5781 5780 5779 5778 5777 5777 5777 5777 5776 5775 5775 5776 5777 5778 5779 5781 5782 5784 5786 5787 5789 5792 5794
5795 5793 5791 5789 5788 5786 5785 5783 5782 5781 5780 5780 5779 5778 5777 5776 5775 5775 5774 5773 5772 5771 5771 5770 5770 5770 5769 5768 5767 5768 5769 5770 5771 5773 5774 5775 5777 5779 5781 5783 5785 5788
5789 5787 5785 5783 5782 5780 5779 5777 5776 5775 5774 5773 5772 5771 5770 5769 5768 5767 5766 5765 5764 5764 5763 5762 5762 5762 5761 5760 5760 5760 5761 5763 5764 5766 5767 5768 5770 5773 5775 5777 5779 5781
5782 5780 5779 5777 5776 5774 5773 5772 5770 5769 5768 5767 5765 5764 5763 5762 5761 5759 5758 5757 5756 5756 5756 5755 5755 5755 5753 5752 5752 5752 5752 5754 5757 5759 5760 5762 5764 5766 5769 5770 5772 5775
5776 5775 5773 5771 5770 5768 5767 5766 5764 5763 5762 5760 5759 5757 5756 5755 5754 5752 5751 5750 5748 5748 5748 5747 5747 5747 5745 5744 5744 5744 5744 5745 5748 5751 5753 5755 5757 5759 5762 5764 5766 5769
5770 5769 5767 5766 5764 5763 5761 5760 5758 5757 5755 5753 5752 5751 5749 5748 5747 5745 5744 5742 5740 5740 5739 5740 5740 5739 5737 5736 5736 5736 5736 5737 5740 5743 5746 5748 5750 5752 5755 5757 5760 5762
5765 5763 5762 5760 5758 5757 5755 5754 5752 5750 5749 5747 5745 5744 5742 5741 5739 5738 5736 5735 5733 5732 5731 5732 5732 5731 5729 5728 5728 5728 5728 5729 5732 5736 5739 5741 5743 5745 5748 5751 5754 5756
5760 5758 5756 5755 5753 5751 5749 5748 5746 5744 5742 5740 5739 5737 5736 5734 5732 5731 5729 5727 5726 5724 5723 5724 5724 5723 5722 5721 5721 5720 5720 5722 5725 5728 5731 5735 5737 5739 5741 5744 5747 5750
5754 5752 5751 5749 5747 5745 5743 5742 5740 5738 5736 5734 5732 5731 5729 5726 5725 5723 5722 5720 5719 5717 5716 5716 5716 5716 5714 5714 5714 5713 5713 5715 5718 5721 5724 5728 5730 5732 5734 5737 5740 5743
5747 5746 5744 5743 5741 5739 5738 5736 5734 5732 5730 5727 5725 5723 5722 5720 5718 5716 5715 5713 5711 5710 5709 5708 5709 5709 5708 5707 5707 5706 5706 5708 5711 5714 5717 5721 5724 5726 5727 5730 5733 5736
5741 5740 5738 5737 5735 5734 5732 5730 5729 5726 5724 5721 5719 5717 5715 5714 5711 5710 5708 5707 5704 5703 5702 5701 5702 5703 5702 5701 5701 5700 5699 5701 5704 5707 5710 5714 5717 5719 5721 5723 5726 5729
5736 5734 5733 5731 5730 5728 5727 5725 5723 5720 5718 5715 5713 5711 5709 5707 5705 5703 5702 5701 5698 5697 5696 5695 5695 5696 5695 5695 5695 5694 5693 5695 5697 5700 5704 5707 5710 5712 5714 5717 5719 5722